Voltar ao catálogo

STARLINK-35600

AtivoComunicaçõesVLEO
NORAD 66510·PAYLOAD·🇺🇸 United States

Lançado Nov 15, 2025 de Cape Canaveral Space Force Station

Loading…

Próximas Passagens (próximas 24 horas)

TLE

AtualizadoSource: CelesTrak SupGP

Época: Sep 14, 2026, 22:44 UTC

1 66510C 25263AB  26257.94770833 -.00014297  00000+0 -51789-3 0  2573
2 66510  43.0015   2.2103 0001327 267.5190 301.9297 15.27583301    11

Acompanhe STARLINK-35600 em tempo real com AllMySat

Download on the App Store